Total_Precipitation_Accumulation
1.26 1.14 1.06 1.09 1.05 1.01 1.01 1.04 0.98 0.92 0.91 0.89 0.87 0.83 0.78 0.66 0.56 0.54 0.50 0.50 0.48 0.54 0.78 0.99 1.17 1.43 1.67 1.87 2.05 2.04 1.78 1.61 1.48 1.35 1.34 1.45 1.51 1.51 1.52 1.61 1.74 1.71 1.58
1.35 1.25 1.11 1.07 1.04 1.01 1.01 0.98 0.95 0.89 0.84 0.78 0.75 0.74 0.81 0.78 0.70 0.62 0.54 0.52 0.51 0.52 0.66 0.86 1.10 1.34 1.64 1.95 2.20 2.39 2.17 2.00 1.82 1.62 1.44 1.44 1.54 1.58 1.57 1.62 1.73 1.88 1.91
1.50 1.44 1.31 1.16 1.03 0.98 1.01 1.04 1.00 0.96 0.88 0.78 0.71 0.69 0.70 0.71 0.72 0.67 0.59 0.54 0.55 0.55 0.61 0.78 0.97 1.19 1.49 1.87 2.21 2.46 2.58 2.38 2.19 2.02 1.77 1.56 1.55 1.64 1.72 1.80 1.85 1.96 2.05
1.66 1.61 1.52 1.39 1.26 1.13 1.05 1.04 1.00 0.95 0.90 0.83 0.77 0.70 0.67 0.65 0.62 0.60 0.56 0.55 0.57 0.57 0.61 0.71 0.83 1.07 1.32 1.58 1.95 2.30 2.68 2.66 2.60 2.47 2.31 1.98 1.73 1.72 1.83 1.93 2.06 2.12 2.13
1.86 1.76 1.65 1.59 1.56 1.43 1.25 1.12 1.06 0.96 0.88 0.83 0.82 0.79 0.74 0.69 0.65 0.63 0.56 0.52 0.52 0.54 0.59 0.64 0.72 0.87 1.08 1.33 1.67 2.03 2.42 2.77 2.88 2.87 2.81 2.60 2.21 1.91 1.92 2.04 2.11 2.24 2.34
2.07 1.99 1.85 1.72 1.72 1.65 1.53 1.36 1.22 1.11 0.98 0.89 0.89 0.89 0.84 0.80 0.73 0.65 0.61 0.56 0.53 0.52 0.57 0.61 0.62 0.69 0.85 1.04 1.35 1.75 2.17 2.63 3.02 3.11 3.08 3.09 2.96 2.52 2.27 2.26 2.26 2.36 2.53
2.32 2.30 2.12 1.97 1.88 1.76 1.58 1.49 1.45 1.36 1.21 1.08 1.08 1.10 1.00 0.89 0.86 0.75 0.64 0.58 0.55 0.52 0.53 0.60 0.63 0.63 0.72 0.89 1.06 1.33 1.80 2.28 2.83 3.38 3.41 3.33 3.41 3.23 2.85 2.67 2.60 2.64 2.82
2.32 2.54 2.44 2.25 2.09 1.95 1.81 1.64 1.56 1.56 1.47 1.28 1.17 1.23 1.27 1.21 1.03 0.84 0.72 0.60 0.58 0.57 0.56 0.56 0.62 0.64 0.66 0.74 0.85 1.07 1.40 1.89 2.40 3.14 3.83 3.90 3.93 4.02 3.63 3.20 3.02 3.03 3.13
2.09 2.20 2.29 2.18 2.17 2.10 2.00 1.86 1.70 1.64 1.67 1.53 1.29 1.36 1.46 1.32 1.05 0.90 0.80 0.70 0.62 0.60 0.58 0.57 0.59 0.63 0.66 0.74 0.79 0.89 1.09 1.47 1.96 2.57 3.42 4.17 4.40 4.60 4.53 3.89 3.54 3.46 3.44
2.03 2.07 2.14 2.15 2.00 1.93 1.87 1.85 1.79 1.66 1.68 1.71 1.54 1.31 1.22 1.17 1.23 1.11 0.89 0.82 0.79 0.72 0.66 0.60 0.58 0.63 0.67 0.74 0.85 0.91 0.97 1.14 1.54 2.08 2.80 3.73 4.54 4.96 5.24 4.85 4.18 3.93 3.85
1.99 2.09 2.08 2.11 2.12 1.97 1.80 1.74 1.78 1.77 1.70 1.66 1.59 1.44 1.25 1.06 1.03 1.19 1.04 0.90 0.93 0.90 0.83 0.75 0.70 0.71 0.72 0.79 0.84 0.94 1.07 1.14 1.49 1.81 2.25 2.92 4.01 4.92 5.57 5.69 5.09 4.40 4.08
1.79 1.94 2.05 2.02 2.02 2.05 1.98 1.81 1.74 1.78 1.72 1.64 1.59 1.51 1.43 1.33 1.14 1.12 1.08 0.88 0.86 0.86 0.90 0.94 0.92 0.89 0.87 0.88 0.98 1.19 1.19 1.28 1.53 1.67 1.80 2.13 2.90 3.95 4.90 5.48 5.32 4.69 4.28
1.68 1.72 1.84 1.90 1.88 1.89 1.95 1.93 1.83 1.78 1.76 1.73 1.65 1.53 1.42 1.33 1.24 1.26 1.30 1.12 0.93 0.82 0.86 0.94 0.95 0.99 1.03 1.01 1.12 1.25 1.24 1.39 1.49 1.58 1.61 1.75 2.15 2.93 3.86 4.78 5.23 4.92 4.43
1.55 1.53 1.59 1.68 1.68 1.64 1.71 1.82 1.82 1.74 1.74 1.76 1.71 1.64 1.55 1.38 1.31 1.38 1.48 1.56 1.40 1.01 0.85 0.88 0.90 0.97 1.09 1.13 1.24 1.38 1.30 1.42 1.49 1.58 1.63 1.65 1.80 2.10 2.78 3.82 5.07 5.50 4.86
1.52 1.54 1.54 1.55 1.50 1.48 1.49 1.54 1.60 1.58 1.62 1.66 1.68 1.70 1.71 1.57 1.45 1.39 1.43 1.64 1.96 1.73 1.12 0.84 0.88 0.95 1.04 1.15 1.34 1.22 1.14 1.25 1.32 1.39 1.50 1.58 1.67 1.77 2.04 2.65 3.61 4.95 5.58
1.47 1.52 1.53 1.52 1.47 1.39 1.42 1.45 1.41 1.35 1.43 1.49 1.54 1.62 1.67 1.60 1.51 1.44 1.48 1.50 1.62 1.83 1.52 0.91 0.83 0.88 1.03 1.11 1.25 1.14 1.16 1.34 1.32 1.36 1.43 1.49 1.57 1.64 1.78 2.06 2.59 3.44 4.62
1.39 1.36 1.40 1.44 1.44 1.38 1.36 1.44 1.41 1.34 1.35 1.37 1.40 1.44 1.47 1.49 1.52 1.45 1.45 1.46 1.43 1.51 1.54 1.00 0.82 0.87 1.05 1.15 1.15 1.09 1.12 1.17 1.19 1.34 1.38 1.41 1.48 1.58 1.77 1.96 2.25 2.68 3.34
1.37 1.37 1.34 1.36 1.37 1.38 1.39 1.42 1.39 1.32 1.32 1.31 1.32 1.32 1.32 1.36 1.44 1.39 1.36 1.33 1.28 1.24 1.31 1.16 0.91 0.90 0.98 1.05 1.15 1.22 1.21 1.18 1.12 1.24 1.28 1.38 1.52 1.59 1.69 1.89 2.13 2.42 2.78
1.32 1.34 1.35 1.35 1.38 1.41 1.41 1.35 1.37 1.33 1.28 1.28 1.29 1.29 1.25 1.31 1.39 1.34 1.33 1.28 1.19 1.12 1.13 1.17 1.02 0.92 0.96 1.01 1.19 1.34 1.33 1.33 1.25 1.28 1.31 1.38 1.49 1.60 1.69 1.80 2.03 2.26 2.44
1.30 1.26 1.26 1.30 1.40 1.57 1.61 1.56 1.58 1.46 1.34 1.28 1.23 1.20 1.22 1.33 1.37 1.39 1.44 1.34 1.27 1.29 1.29 1.34 1.22 1.09 1.09 1.10 1.29 1.54 1.63 1.57 1.49 1.32 1.37 1.42 1.54 1.67 1.71 1.71 1.78 1.91 2.06
1.27 1.19 1.19 1.25 1.35 1.72 2.12 2.13 2.02 1.73 1.43 1.27 1.18 1.16 1.22 1.38 1.44 1.62 1.75 1.63 1.60 1.70 1.67 1.66 1.55 1.45 1.37 1.39 1.47 1.52 1.70 1.72 1.70 1.51 1.40 1.33 1.37 1.40 1.51 1.64 1.71 1.77 1.89
1.36 1.25 1.19 1.20 1.26 1.57 2.27 2.44 2.09 1.61 1.40 1.27 1.21 1.16 1.16 1.30 1.34 1.48 1.68 1.77 1.83 1.96 2.04 2.01 1.90 1.75 1.49 1.40 1.43 1.58 1.69 1.88 1.97 1.63 1.53 1.48 1.42 1.52 1.47 1.49 1.71 1.76 1.83
1.48 1.46 1.30 1.19 1.17 1.37 2.06 2.24 1.96 1.53 1.34 1.26 1.20 1.18 1.18 1.23 1.31 1.29 1.42 1.50 1.54 1.70 1.93 2.04 2.09 1.69 1.46 1.40 1.63 1.84 1.81 1.89 1.86 1.75 1.87 1.83 1.53 1.57 1.51 1.62 1.84 1.77 1.79
1.41 1.47 1.42 1.31 1.20 1.28 1.85 2.05 1.86 1.50 1.35 1.26 1.17 1.15 1.16 1.19 1.30 1.50 1.47 1.43 1.34 1.36 1.57 1.77 2.03 1.85 1.65 1.69 2.03 2.36 2.45 2.33 1.92 1.72 1.88 2.10 1.66 1.55 1.60 1.70 1.89 1.83 1.75
1.33 1.33 1.33 1.33 1.28 1.26 1.64 1.93 1.76 1.44 1.38 1.28 1.15 1.13 1.16 1.17 1.44 1.72 1.62 1.48 1.31 1.23 1.34 1.67 1.98 2.12 2.16 2.29 2.53 2.84 3.00 2.83 2.36 1.82 1.78 2.06 1.86 1.66 1.82 2.02 2.09 2.04 1.80
1.27 1.26 1.27 1.28 1.22 1.17 1.45 1.75 1.75 1.43 1.34 1.27 1.20 1.15 1.30 1.40 1.60 1.74 1.59 1.54 1.63 1.41 1.26 1.32 1.42 1.54 1.62 1.78 2.18 2.46 2.77 2.87 2.50 2.27 1.89 2.01 2.12 2.12 2.42 2.28 2.15 1.99 1.78